Weather History for Mayport NS, FL

Change the Weather History Date:

Saturday, May 25, 2013

  Actual Average Record
Temperature  
Mean Temperature 74 °F -  
Max Temperature 80 °F 83 °F 95 °F (2000)
Min Temperature 68 °F 69 °F 64 °F (2001)
Cooling Degree Days 8    
Growing Degree Days 24 (Base 50)    
Moisture  
Dew Point 55 °F    
Average Humidity 52    
Maximum Humidity 93    
Minimum Humidity 38    
Precipitation  
Precipitation 0.00 in - - ()
Sea Level Pressure  
Sea Level Pressure 30.20 in    
Wind  
Wind Speed 10 mph (ENE)    
Max Wind Speed 18 mph    
Max Gust Speed -    
Visibility 10 miles    
Events      
Averages and records for this station are not official NWS values.
T = Trace of Precipitation, MM = Missing Value Source: NWS Daily Summary

Daily Weather History Graph

Daily Weather History Graph

Search for Another Location

Airport:

Trip Planner

Search our weather history database for the weather conditions in past years. The results will help you decide how hot, cold, wet, or windy it might be!

Date:

Astronomy

May. 25, 2013 Rise Set
Actual Time 6:26 AM EDT 8:19 PM EDT
Civil Twilight 5:59 AM EDT 8:46 PM EDT
Nautical Twilight 5:27 AM EDT 9:18 PM EDT
Astronomical Twilight 4:52 AM EDT 9:53 PM EDT
Moon 9:06 PM EDT (5/25) 6:50 AM EDT (5/25)
Length of Visible Light 14h 46m
Length of Day
13h 53m
Full, 100% of the Moon is Illuminated
May 25
Full
May 31
Last Quarter
Jun 8
New
Jun 16
First Quarter
Jun 23
Full

Hourly Weather History & Observations

Time (EDT) Temp. Dew Point Humidity Pressure Visibility Wind Dir Wind Speed Gust Speed Precip Events Conditions
12:52 AM 68.0 °F 66.0 °F 93% 30.13 in 10.0 mi Calm Calm - N/A   Clear
1:52 AM 71.1 °F 68.0 °F 90% 30.13 in 10.0 mi North 5.8 mph - N/A   Clear
2:52 AM 73.9 °F 62.1 °F 66% 30.12 in 10.0 mi NE 15.0 mph - N/A   Clear
3:52 AM 73.0 °F 59.0 °F 61% 30.12 in 10.0 mi NE 18.4 mph - N/A   Clear
4:52 AM 73.0 °F 55.0 °F 53% 30.13 in 10.0 mi NE 17.3 mph - N/A   Clear
5:52 AM 72.0 °F 55.0 °F 55% 30.14 in 10.0 mi NE 12.7 mph - N/A   Clear
6:52 AM 72.0 °F 54.0 °F 53% 30.18 in 10.0 mi NE 12.7 mph - N/A   Clear
7:52 AM 73.9 °F 53.1 °F 48% 30.20 in 10.0 mi NE 13.8 mph - N/A   Clear
8:52 AM 77.0 °F 50.0 °F 39% 30.23 in 10.0 mi NE 11.5 mph - N/A   Clear
9:52 AM 78.1 °F 52.0 °F 40% 30.25 in 10.0 mi NE 13.8 mph - N/A   Clear
10:52 AM 78.1 °F 52.0 °F 40% 30.27 in 10.0 mi NE 13.8 mph - N/A   Scattered Clouds
11:52 AM 79.0 °F 51.1 °F 38% 30.28 in 10.0 mi NE 15.0 mph - N/A   Scattered Clouds
12:52 PM 78.1 °F 51.1 °F 39% 30.27 in 10.0 mi NE 12.7 mph - N/A   Partly Cloudy
1:52 PM 79.0 °F 52.0 °F 39% 30.26 in 10.0 mi NE 11.5 mph - N/A   Partly Cloudy
2:52 PM 78.1 °F 53.1 °F 42% 30.24 in 10.0 mi NE 11.5 mph - N/A   Scattered Clouds
3:52 PM 78.1 °F 53.1 °F 42% 30.22 in 10.0 mi NE 12.7 mph - N/A   Scattered Clouds
4:52 PM 77.0 °F 53.1 °F 43% 30.21 in 10.0 mi NE 10.4 mph - N/A   Scattered Clouds
5:52 PM 75.9 °F 51.1 °F 42% 30.21 in 10.0 mi NE 10.4 mph - N/A   Mostly Cloudy
6:52 PM 73.9 °F 52.0 °F 46% 30.21 in 10.0 mi ENE 8.1 mph - N/A   Mostly Cloudy
7:52 PM 71.1 °F 53.1 °F 53% 30.21 in 10.0 mi East 8.1 mph - N/A   Mostly Cloudy
8:52 PM 70.0 °F 53.1 °F 55% 30.22 in 10.0 mi ESE 6.9 mph - N/A   Mostly Cloudy
9:52 PM 70.0 °F 55.0 °F 59% 30.22 in 10.0 mi East 8.1 mph - N/A   Scattered Clouds
10:52 PM 70.0 °F 55.0 °F 59% 30.22 in 10.0 mi ESE 8.1 mph - N/A   Mostly Cloudy
11:52 PM 70.0 °F 55.0 °F 59% 30.22 in 10.0 mi ESE 8.1 mph - N/A   Clear